Tracking 19709 objects as of 18-Jun-2019
HD Live streaming from Space Station
objects crossing your sky now

FLOCK 3K 3

Track FLOCK 3K 3 now!
10-day predictions
FLOCK 3K 3 is classified as:


NORAD ID: 43892
Int'l Code: 2018-111S
Perigee: 483.5 km
Apogee: 517.2 km
Inclination: 97.3 °
Period: 94.5 minutes
Semi major axis: 6871 km
RCS: Unknown
Launch date: December 27, 2018
Source: United States (US)
Launch site: VOSTOCHNY COSMODROME (VOSTO)
aabbcc
Your satellite tracking list
Your tracking list is empty




NASA's NSSDC Master Catalog

Two Line Element Set (TLE):
1 43892U 18111S   19169.19418508  .00002054  00000-0  86525-4 0  9991
2 43892  97.2909  74.3507 0024490   3.3817 356.7581 15.24198148 26366
Source of the keplerian elements: AFSPC